contact:dominique.lefevre@mio.osupytheas.fr, maurice.libes@osupytheas.fr, didier.mallarino@osupytheas.fr
Project:EMSO http://www.emso-fr.org/EMSO-France
Depth: 2436.0 m
Title:EMSO Ligure Ouest : Data MII capteur MICROCAT
DateTime_Computer,Latitude,Longitude,Temperature,Conductivity,Pressure,DateTime_Instrument
DateTime_Computer,Latitude,Longitude,degC,S m-1,dbar,DateTime_Instrument
2021-09-30T00:00:31Z,42.805,6.029,13.2989,4.60003,2470.404,2021-9-30T02:01:53Z
2021-09-30T00:03:34Z,42.805,6.029,13.2995,4.60006,2470.334,2021-9-30T02:04:56Z
2021-09-30T00:06:37Z,42.805,6.029,13.2984,4.60006,2470.32,2021-9-30T02:07:59Z
2021-09-30T00:09:40Z,42.805,6.029,13.2990,4.60005,2470.32,2021-9-30T02:11:02Z
2021-09-30T00:12:43Z,42.805,6.029,13.2989,4.60005,2470.334,2021-9-30T02:14:05Z
2021-09-30T00:15:46Z,42.805,6.029,13.2993,4.60004,2470.366,2021-9-30T02:17:08Z
2021-09-30T00:18:49Z,42.805,6.029,13.2990,4.60005,2470.366,2021-9-30T02:20:12Z
2021-09-30T00:21:53Z,42.805,6.029,13.2993,4.60006,2470.376,2021-9-30T02:23:15Z
2021-09-30T00:24:56Z,42.805,6.029,13.2989,4.60005,2470.366,2021-9-30T02:26:18Z
2021-09-30T00:27:59Z,42.805,6.029,13.2991,4.60005,2470.39,2021-9-30T02:29:21Z
2021-09-30T00:31:02Z,42.805,6.029,13.2991,4.60008,2470.38,2021-9-30T02:32:24Z
2021-09-30T00:34:05Z,42.805,6.029,13.2990,4.60007,2470.366,2021-9-30T02:35:27Z
2021-09-30T00:37:08Z,42.805,6.029,13.2991,4.60005,2470.366,2021-9-30T02:38:30Z
2021-09-30T00:40:11Z,42.805,6.029,13.2993,4.60005,2470.366,2021-9-30T02:41:33Z
2021-09-30T00:43:14Z,42.805,6.029,13.2990,4.60006,2470.357,2021-9-30T02:44:37Z
2021-09-30T00:46:17Z,42.805,6.029,13.2987,4.60004,2470.39,2021-9-30T02:47:40Z
2021-09-30T00:49:21Z,42.805,6.029,13.2988,4.60007,2470.357,2021-9-30T02:50:43Z
2021-09-30T00:52:24Z,42.805,6.029,13.2991,4.60007,2470.38,2021-9-30T02:53:46Z
2021-09-30T00:55:27Z,42.805,6.029,13.2990,4.60005,2470.32,2021-9-30T02:56:49Z
2021-09-30T00:58:30Z,42.805,6.029,13.2990,4.60005,2470.366,2021-9-30T02:59:52Z
2021-09-30T01:01:33Z,42.805,6.029,13.2988,4.60004,2470.38,2021-9-30T03:02:55Z
2021-09-30T01:04:36Z,42.805,6.029,13.2990,4.60007,2470.39,2021-9-30T03:05:58Z
2021-09-30T01:07:39Z,42.805,6.029,13.2992,4.60005,2470.366,2021-9-30T03:09:02Z
2021-09-30T01:10:42Z,42.805,6.029,13.2989,4.60006,2470.39,2021-9-30T03:12:05Z
2021-09-30T01:13:46Z,42.805,6.029,13.2991,4.60006,2470.404,2021-9-30T03:15:08Z
2021-09-30T01:16:49Z,42.805,6.029,13.2987,4.60006,2470.366,2021-9-30T03:18:11Z
2021-09-30T01:19:52Z,42.805,6.029,13.2990,4.60008,2470.366,2021-9-30T03:21:14Z
2021-09-30T01:22:55Z,42.805,6.029,13.2989,4.60007,2470.38,2021-9-30T03:24:17Z
2021-09-30T01:25:58Z,42.805,6.029,13.2988,4.60007,2470.39,2021-9-30T03:27:20Z
2021-09-30T01:29:01Z,42.805,6.029,13.2990,4.60008,2470.39,2021-9-30T03:30:23Z
2021-09-30T01:32:04Z,42.805,6.029,13.2990,4.60006,2470.38,2021-9-30T03:33:27Z
2021-09-30T01:35:07Z,42.805,6.029,13.2993,4.60007,2470.334,2021-9-30T03:36:30Z
2021-09-30T01:38:11Z,42.805,6.029,13.2991,4.60005,2470.38,2021-9-30T03:39:33Z
2021-09-30T01:41:14Z,42.805,6.029,13.2990,4.60006,2470.39,2021-9-30T03:42:36Z
2021-09-30T01:44:17Z,42.805,6.029,13.2993,4.60008,2470.366,2021-9-30T03:45:39Z
2021-09-30T01:47:20Z,42.805,6.029,13.2987,4.60008,2470.366,2021-9-30T03:48:42Z
2021-09-30T01:50:23Z,42.805,6.029,13.2989,4.60008,2470.366,2021-9-30T03:51:45Z
2021-09-30T01:53:26Z,42.805,6.029,13.2990,4.60006,2470.366,2021-9-30T03:54:48Z
2021-09-30T01:56:29Z,42.805,6.029,13.2990,4.60009,2470.357,2021-9-30T03:57:52Z
2021-09-30T01:59:32Z,42.805,6.029,13.2989,4.60008,2470.343,2021-9-30T04:00:55Z
2021-09-30T02:02:36Z,42.805,6.029,13.2991,4.60005,2470.343,2021-9-30T04:03:58Z
2021-09-30T02:05:39Z,42.805,6.029,13.2988,4.60006,2470.39,2021-9-30T04:07:01Z
2021-09-30T02:08:42Z,42.805,6.029,13.2989,4.60009,2470.343,2021-9-30T04:10:04Z
2021-09-30T02:11:45Z,42.805,6.029,13.2990,4.60007,2470.343,2021-9-30T04:13:07Z
2021-09-30T02:14:48Z,42.805,6.029,13.2991,4.60007,2470.343,2021-9-30T04:16:10Z
2021-09-30T02:17:51Z,42.805,6.029,13.2991,4.60006,2470.404,2021-9-30T04:19:13Z
2021-09-30T02:20:54Z,42.805,6.029,13.2989,4.60005,2470.366,2021-9-30T04:22:16Z
2021-09-30T02:23:57Z,42.805,6.029,13.2991,4.60009,2470.366,2021-9-30T04:25:20Z
2021-09-30T02:27:01Z,42.805,6.029,13.2991,4.60006,2470.32,2021-9-30T04:28:23Z
2021-09-30T02:30:04Z,42.805,6.029,13.2990,4.60006,2470.366,2021-9-30T04:31:26Z
2021-09-30T02:33:07Z,42.805,6.029,13.2990,4.60006,2470.38,2021-9-30T04:34:29Z
2021-09-30T02:36:10Z,42.805,6.029,13.2990,4.60006,2470.343,2021-9-30T04:37:32Z
2021-09-30T02:39:13Z,42.805,6.029,13.2991,4.60007,2470.366,2021-9-30T04:40:35Z
2021-09-30T02:42:16Z,42.805,6.029,13.2991,4.60007,2470.357,2021-9-30T04:43:38Z
2021-09-30T02:45:19Z,42.805,6.029,13.2990,4.60008,2470.38,2021-9-30T04:46:41Z
2021-09-30T02:48:22Z,42.805,6.029,13.2989,4.60008,2470.404,2021-9-30T04:49:45Z
2021-09-30T02:51:26Z,42.805,6.029,13.2990,4.60006,2470.357,2021-9-30T04:52:48Z
2021-09-30T02:54:29Z,42.805,6.029,13.2991,4.60006,2470.366,2021-9-30T04:55:51Z
2021-09-30T02:57:32Z,42.805,6.029,13.2990,4.60007,2470.357,2021-9-30T04:58:54Z
2021-09-30T03:00:35Z,42.805,6.029,13.2991,4.60006,2470.39,2021-9-30T05:01:57Z
2021-09-30T03:03:38Z,42.805,6.029,13.2991,4.60006,2470.366,2021-9-30T05:05:00Z
2021-09-30T03:06:41Z,42.805,6.029,13.2990,4.60005,2470.343,2021-9-30T05:08:03Z
2021-09-30T03:09:44Z,42.805,6.029,13.2990,4.60008,2470.334,2021-9-30T05:11:06Z
2021-09-30T03:12:47Z,42.805,6.029,13.2991,4.60006,2470.38,2021-9-30T05:14:10Z
2021-09-30T03:15:51Z,42.805,6.029,13.2989,4.60006,2470.366,2021-9-30T05:17:13Z
2021-09-30T03:18:54Z,42.805,6.029,13.2985,4.60008,2470.38,2021-9-30T05:20:16Z
2021-09-30T03:21:57Z,42.805,6.029,13.2991,4.60008,2470.343,2021-9-30T05:23:19Z
2021-09-30T03:25:00Z,42.805,6.029,13.2988,4.60007,2470.343,2021-9-30T05:26:22Z
2021-09-30T03:28:03Z,42.805,6.029,13.2992,4.60006,2470.343,2021-9-30T05:29:25Z
2021-09-30T03:31:06Z,42.805,6.029,13.2993,4.60007,2470.343,2021-9-30T05:32:28Z
2021-09-30T03:34:09Z,42.805,6.029,13.2995,4.60009,2470.343,2021-9-30T05:35:31Z
2021-09-30T03:37:12Z,42.805,6.029,13.2990,4.60008,2470.357,2021-9-30T05:38:35Z
2021-09-30T03:40:16Z,42.805,6.029,13.2989,4.60006,2470.357,2021-9-30T05:41:38Z
2021-09-30T03:43:19Z,42.805,6.029,13.2994,4.60006,2470.343,2021-9-30T05:44:41Z
2021-09-30T03:46:22Z,42.805,6.029,13.2990,4.60005,2470.343,2021-9-30T05:47:44Z
2021-09-30T03:49:25Z,42.805,6.029,13.2990,4.60007,2470.38,2021-9-30T05:50:47Z
2021-09-30T03:52:28Z,42.805,6.029,13.2991,4.60007,2470.366,2021-9-30T05:53:50Z
2021-09-30T03:55:31Z,42.805,6.029,13.2991,4.60008,2470.32,2021-9-30T05:56:53Z
2021-09-30T03:58:34Z,42.805,6.029,13.2990,4.60007,2470.32,2021-9-30T05:59:56Z
2021-09-30T04:01:37Z,42.805,6.029,13.2990,4.60008,2470.343,2021-9-30T06:03:00Z
2021-09-30T04:04:41Z,42.805,6.029,13.2992,4.60007,2470.357,2021-9-30T06:06:03Z
2021-09-30T04:07:44Z,42.805,6.029,13.2989,4.60006,2470.343,2021-9-30T06:09:06Z
2021-09-30T04:10:47Z,42.805,6.029,13.2988,4.60009,2470.366,2021-9-30T06:12:09Z
2021-09-30T04:13:50Z,42.805,6.029,13.2990,4.60007,2470.343,2021-9-30T06:15:12Z
2021-09-30T04:16:53Z,42.805,6.029,13.2990,4.60006,2470.38,2021-9-30T06:18:15Z
2021-09-30T04:19:56Z,42.805,6.029,13.2990,4.60006,2470.39,2021-9-30T06:21:18Z
2021-09-30T04:22:59Z,42.805,6.029,13.2990,4.60008,2470.366,2021-9-30T06:24:21Z
2021-09-30T04:26:02Z,42.805,6.029,13.2986,4.60009,2470.343,2021-9-30T06:27:25Z
2021-09-30T04:29:06Z,42.805,6.029,13.2991,4.60006,2470.334,2021-9-30T06:30:28Z
2021-09-30T04:32:09Z,42.805,6.029,13.2989,4.60006,2470.38,2021-9-30T06:33:31Z
2021-09-30T04:35:12Z,42.805,6.029,13.2994,4.60006,2470.32,2021-9-30T06:36:34Z
2021-09-30T04:38:15Z,42.805,6.029,13.2993,4.60007,2470.357,2021-9-30T06:39:37Z
2021-09-30T04:41:18Z,42.805,6.029,13.2991,4.60006,2470.33,2021-9-30T06:42:40Z
2021-09-30T04:44:21Z,42.805,6.029,13.2988,4.60007,2470.343,2021-9-30T06:45:43Z
2021-09-30T04:47:24Z,42.805,6.029,13.2988,4.60009,2470.357,2021-9-30T06:48:46Z
2021-09-30T04:50:27Z,42.805,6.029,13.2990,4.60007,2470.32,2021-9-30T06:51:50Z
2021-09-30T04:53:31Z,42.805,6.029,13.2995,4.60005,2470.357,2021-9-30T06:54:53Z
2021-09-30T04:56:34Z,42.805,6.029,13.2989,4.60008,2470.366,2021-9-30T06:57:56Z
2021-09-30T04:59:37Z,42.805,6.029,13.2991,4.60007,2470.343,2021-9-30T07:00:59Z
2021-09-30T05:02:40Z,42.805,6.029,13.2990,4.60009,2470.38,2021-9-30T07:04:02Z
2021-09-30T05:05:43Z,42.805,6.029,13.2990,4.60006,2470.366,2021-9-30T07:07:05Z
2021-09-30T05:08:46Z,42.805,6.029,13.2987,4.60006,2470.343,2021-9-30T07:10:08Z
2021-09-30T05:11:49Z,42.805,6.029,13.2989,4.60008,2470.357,2021-9-30T07:13:11Z
2021-09-30T05:14:52Z,42.805,6.029,13.2990,4.60005,2470.366,2021-9-30T07:16:15Z
2021-09-30T05:17:55Z,42.805,6.029,13.2989,4.60007,2470.366,2021-9-30T07:19:18Z
2021-09-30T05:20:59Z,42.805,6.029,13.2991,4.60006,2470.357,2021-9-30T07:22:21Z
2021-09-30T05:24:02Z,42.805,6.029,13.2989,4.60009,2470.366,2021-9-30T07:25:24Z
2021-09-30T05:27:05Z,42.805,6.029,13.2992,4.60008,2470.366,2021-9-30T07:28:27Z
2021-09-30T05:30:08Z,42.805,6.029,13.2991,4.60006,2470.343,2021-9-30T07:31:30Z
2021-09-30T05:33:11Z,42.805,6.029,13.2990,4.60005,2470.38,2021-9-30T07:34:33Z
2021-09-30T05:36:14Z,42.805,6.029,13.2991,4.60006,2470.357,2021-9-30T07:37:36Z
2021-09-30T05:39:17Z,42.805,6.029,13.2990,4.60006,2470.357,2021-9-30T07:40:40Z
2021-09-30T05:42:20Z,42.805,6.029,13.2990,4.60004,2470.343,2021-9-30T07:43:43Z
2021-09-30T05:45:24Z,42.805,6.029,13.2986,4.60006,2470.343,2021-9-30T07:46:46Z
2021-09-30T05:48:27Z,42.805,6.029,13.2990,4.60006,2470.297,2021-9-30T07:49:49Z
2021-09-30T05:51:30Z,42.805,6.029,13.2993,4.60007,2470.334,2021-9-30T07:52:52Z
2021-09-30T05:54:33Z,42.805,6.029,13.2988,4.60006,2470.32,2021-9-30T07:55:55Z
2021-09-30T05:57:36Z,42.805,6.029,13.2990,4.60009,2470.343,2021-9-30T07:58:58Z
2021-09-30T06:00:39Z,42.805,6.029,13.2990,4.60006,2470.33,2021-9-30T08:02:01Z
2021-09-30T06:03:42Z,42.805,6.029,13.2989,4.60007,2470.343,2021-9-30T08:05:05Z
2021-09-30T06:06:45Z,42.805,6.029,13.2990,4.60006,2470.343,2021-9-30T08:08:08Z
2021-09-30T06:09:49Z,42.805,6.029,13.2988,4.60007,2470.334,2021-9-30T08:11:11Z
2021-09-30T06:12:52Z,42.805,6.029,13.2987,4.60005,2470.343,2021-9-30T08:14:14Z
2021-09-30T06:15:55Z,42.805,6.029,13.2991,4.60007,2470.32,2021-9-30T08:17:17Z
2021-09-30T06:18:58Z,42.805,6.029,13.2990,4.60006,2470.343,2021-9-30T08:20:20Z
2021-09-30T06:22:01Z,42.805,6.029,13.2988,4.60008,2470.343,2021-9-30T08:23:23Z
2021-09-30T06:25:04Z,42.805,6.029,13.2993,4.60006,2470.366,2021-9-30T08:26:26Z
2021-09-30T06:28:07Z,42.805,6.029,13.2991,4.60006,2470.32,2021-9-30T08:29:30Z
2021-09-30T06:31:10Z,42.805,6.029,13.2990,4.60006,2470.357,2021-9-30T08:32:33Z
2021-09-30T06:34:14Z,42.805,6.029,13.2994,4.60006,2470.343,2021-9-30T08:35:36Z
2021-09-30T06:37:17Z,42.805,6.029,13.2991,4.60008,2470.334,2021-9-30T08:38:39Z
2021-09-30T06:40:20Z,42.805,6.029,13.2991,4.60006,2470.32,2021-9-30T08:41:42Z
2021-09-30T06:43:23Z,42.805,6.029,13.2995,4.60005,2470.357,2021-9-30T08:44:45Z
2021-09-30T06:46:26Z,42.805,6.029,13.2991,4.60004,2470.357,2021-9-30T08:47:48Z
2021-09-30T06:49:29Z,42.805,6.029,13.2991,4.60005,2470.32,2021-9-30T08:50:51Z
2021-09-30T06:52:32Z,42.805,6.029,13.2990,4.60007,2470.32,2021-9-30T08:53:55Z
2021-09-30T06:55:35Z,42.805,6.029,13.2991,4.60006,2470.38,2021-9-30T08:56:58Z
2021-09-30T06:58:39Z,42.805,6.029,13.2991,4.60006,2470.343,2021-9-30T09:00:01Z
2021-09-30T07:01:42Z,42.805,6.029,13.2989,4.60006,2470.343,2021-9-30T09:03:04Z
2021-09-30T07:04:45Z,42.805,6.029,13.2990,4.60006,2470.366,2021-9-30T09:06:07Z
2021-09-30T07:07:48Z,42.805,6.029,13.2991,4.60006,2470.343,2021-9-30T09:09:10Z
2021-09-30T07:10:51Z,42.805,6.029,13.2991,4.60006,2470.357,2021-9-30T09:12:13Z
2021-09-30T07:13:54Z,42.805,6.029,13.2992,4.60007,2470.357,2021-9-30T09:15:16Z
2021-09-30T07:16:57Z,42.805,6.029,13.2989,4.60006,2470.357,2021-9-30T09:18:20Z
2021-09-30T07:20:00Z,42.805,6.029,13.2989,4.60005,2470.357,2021-9-30T09:21:23Z
2021-09-30T07:23:04Z,42.805,6.029,13.2990,4.60006,2470.366,2021-9-30T09:24:26Z
2021-09-30T07:26:07Z,42.805,6.029,13.2993,4.60006,2470.334,2021-9-30T09:27:29Z
2021-09-30T07:29:10Z,42.805,6.029,13.2991,4.60005,2470.343,2021-9-30T09:30:32Z
2021-09-30T07:32:13Z,42.805,6.029,13.2991,4.60006,2470.343,2021-9-30T09:33:35Z
2021-09-30T07:35:16Z,42.805,6.029,13.2990,4.60006,2470.343,2021-9-30T09:36:38Z
2021-09-30T07:38:19Z,42.805,6.029,13.2989,4.60005,2470.334,2021-9-30T09:39:41Z
2021-09-30T07:41:22Z,42.805,6.029,13.2986,4.60006,2470.366,2021-9-30T09:42:45Z
2021-09-30T07:44:25Z,42.805,6.029,13.2988,4.60004,2470.334,2021-9-30T09:45:48Z
2021-09-30T07:47:29Z,42.805,6.029,13.2991,4.60005,2470.357,2021-9-30T09:48:51Z
2021-09-30T07:50:32Z,42.805,6.029,13.2989,4.60005,2470.343,2021-9-30T09:51:54Z
2021-09-30T07:53:35Z,42.805,6.029,13.2990,4.60006,2470.32,2021-9-30T09:54:57Z
2021-09-30T07:56:38Z,42.805,6.029,13.2988,4.60006,2470.357,2021-9-30T09:58:00Z
2021-09-30T07:59:41Z,42.805,6.029,13.2991,4.60005,2470.343,2021-9-30T10:01:03Z
2021-09-30T08:02:44Z,42.805,6.029,13.2988,4.60004,2470.366,2021-9-30T10:04:06Z
2021-09-30T08:05:47Z,42.805,6.029,13.2990,4.60003,2470.343,2021-9-30T10:07:09Z
2021-09-30T08:08:50Z,42.805,6.029,13.2987,4.60006,2470.343,2021-9-30T10:10:13Z
2021-09-30T08:11:54Z,42.805,6.029,13.2993,4.60006,2470.357,2021-9-30T10:13:16Z
2021-09-30T08:14:57Z,42.805,6.029,13.2993,4.60005,2470.343,2021-9-30T10:16:19Z
2021-09-30T08:18:00Z,42.805,6.029,13.2990,4.60005,2470.357,2021-9-30T10:19:22Z
2021-09-30T08:21:03Z,42.805,6.029,13.2990,4.60004,2470.357,2021-9-30T10:22:25Z
2021-09-30T08:24:06Z,42.805,6.029,13.2989,4.60008,2470.334,2021-9-30T10:25:28Z
2021-09-30T08:27:09Z,42.805,6.029,13.2990,4.60004,2470.32,2021-9-30T10:28:31Z
2021-09-30T08:30:12Z,42.805,6.029,13.2993,4.60004,2470.32,2021-9-30T10:31:35Z
2021-09-30T08:33:15Z,42.805,6.029,13.2990,4.60005,2470.38,2021-9-30T10:34:38Z
2021-09-30T08:36:19Z,42.805,6.029,13.2989,4.60003,2470.357,2021-9-30T10:37:41Z
2021-09-30T08:39:22Z,42.805,6.029,13.2988,4.60004,2470.343,2021-9-30T10:40:44Z
2021-09-30T08:42:25Z,42.805,6.029,13.2991,4.60004,2470.32,2021-9-30T10:43:47Z
2021-09-30T08:45:28Z,42.805,6.029,13.2990,4.60007,2470.343,2021-9-30T10:46:50Z
2021-09-30T08:48:31Z,42.805,6.029,13.2986,4.60005,2470.366,2021-9-30T10:49:53Z
2021-09-30T08:51:34Z,42.805,6.029,13.2987,4.60004,2470.366,2021-9-30T10:52:56Z
2021-09-30T08:54:37Z,42.805,6.029,13.2988,4.60003,2470.38,2021-9-30T10:56:00Z
2021-09-30T08:57:40Z,42.805,6.029,13.2987,4.60003,2470.343,2021-9-30T10:59:03Z
2021-09-30T09:00:44Z,42.805,6.029,13.2988,4.60004,2470.366,2021-9-30T11:02:06Z
2021-09-30T09:03:47Z,42.805,6.029,13.2991,4.60004,2470.357,2021-9-30T11:05:09Z
2021-09-30T09:06:50Z,42.805,6.029,13.2990,4.60004,2470.343,2021-9-30T11:08:12Z
2021-09-30T09:09:53Z,42.805,6.029,13.2992,4.60003,2470.366,2021-9-30T11:11:15Z
2021-09-30T09:12:56Z,42.805,6.029,13.2993,4.60005,2470.343,2021-9-30T11:14:18Z
2021-09-30T09:15:59Z,42.805,6.029,13.2989,4.60004,2470.33,2021-9-30T11:17:21Z
2021-09-30T09:19:02Z,42.805,6.029,13.2990,4.60004,2470.39,2021-9-30T11:20:25Z
2021-09-30T09:22:05Z,42.805,6.029,13.2989,4.60004,2470.404,2021-9-30T11:23:28Z
2021-09-30T09:25:09Z,42.805,6.029,13.2989,4.60004,2470.366,2021-9-30T11:26:31Z
2021-09-30T09:28:12Z,42.805,6.029,13.2993,4.60004,2470.38,2021-9-30T11:29:34Z
2021-09-30T09:31:15Z,42.805,6.029,13.2990,4.60004,2470.366,2021-9-30T11:32:37Z
2021-09-30T09:34:18Z,42.805,6.029,13.2991,4.60003,2470.38,2021-9-30T11:35:40Z
2021-09-30T09:37:21Z,42.805,6.029,13.2992,4.60005,2470.366,2021-9-30T11:38:43Z
2021-09-30T09:40:24Z,42.805,6.029,13.2991,4.60003,2470.39,2021-9-30T11:41:46Z
2021-09-30T09:43:27Z,42.805,6.029,13.2993,4.60004,2470.38,2021-9-30T11:44:50Z
2021-09-30T09:46:30Z,42.805,6.029,13.2986,4.60004,2470.357,2021-9-30T11:47:53Z
2021-09-30T09:49:34Z,42.805,6.029,13.2986,4.60005,2470.366,2021-9-30T11:50:56Z
2021-09-30T09:52:37Z,42.805,6.029,13.2992,4.60003,2470.357,2021-9-30T11:53:59Z
2021-09-30T09:55:40Z,42.805,6.029,13.2986,4.60003,2470.38,2021-9-30T11:57:02Z
2021-09-30T09:58:43Z,42.805,6.029,13.2990,4.60005,2470.38,2021-9-30T12:00:05Z
2021-09-30T10:01:46Z,42.805,6.029,13.2990,4.60004,2470.39,2021-9-30T12:03:08Z
2021-09-30T10:04:49Z,42.805,6.029,13.2990,4.60004,2470.38,2021-9-30T12:06:11Z
2021-09-30T10:07:52Z,42.805,6.029,13.2987,4.60003,2470.39,2021-9-30T12:09:15Z
2021-09-30T10:10:56Z,42.805,6.029,13.2989,4.60004,2470.38,2021-9-30T12:12:18Z
2021-09-30T10:13:59Z,42.805,6.029,13.2986,4.60005,2470.39,2021-9-30T12:15:21Z
2021-09-30T10:17:02Z,42.805,6.029,13.2992,4.60005,2470.343,2021-9-30T12:18:24Z
2021-09-30T10:20:05Z,42.805,6.029,13.2989,4.60003,2470.39,2021-9-30T12:21:27Z
2021-09-30T10:23:08Z,42.805,6.029,13.2991,4.60005,2470.39,2021-9-30T12:24:30Z
2021-09-30T10:26:11Z,42.805,6.029,13.2990,4.60005,2470.39,2021-9-30T12:27:33Z
2021-09-30T10:29:14Z,42.805,6.029,13.2990,4.60004,2470.404,2021-9-30T12:30:37Z
2021-09-30T10:32:17Z,42.805,6.029,13.2989,4.60003,2470.413,2021-9-30T12:33:40Z
2021-09-30T10:35:21Z,42.805,6.029,13.2990,4.60005,2470.404,2021-9-30T12:36:43Z
2021-09-30T10:38:24Z,42.805,6.029,13.2986,4.60003,2470.366,2021-9-30T12:39:46Z
2021-09-30T10:41:27Z,42.805,6.029,13.2983,4.60003,2470.39,2021-9-30T12:42:49Z
2021-09-30T10:44:30Z,42.805,6.029,13.2990,4.60004,2470.366,2021-9-30T12:45:52Z
2021-09-30T10:47:33Z,42.805,6.029,13.2987,4.60003,2470.427,2021-9-30T12:48:55Z
2021-09-30T10:50:36Z,42.805,6.029,13.2989,4.60009,2470.39,2021-9-30T12:51:58Z
2021-09-30T10:53:39Z,42.805,6.029,13.2986,4.60004,2470.39,2021-9-30T12:55:02Z
2021-09-30T10:56:42Z,42.805,6.029,13.2990,4.60004,2470.39,2021-9-30T12:58:05Z
2021-09-30T10:59:46Z,42.805,6.029,13.2991,4.60003,2470.404,2021-9-30T13:01:08Z
2021-09-30T11:02:49Z,42.805,6.029,13.2990,4.60003,2470.404,2021-9-30T13:04:11Z
2021-09-30T11:05:52Z,42.805,6.029,13.2991,4.60003,2470.427,2021-9-30T13:07:14Z
2021-09-30T11:08:55Z,42.805,6.029,13.2986,4.60004,2470.413,2021-9-30T13:10:17Z
2021-09-30T11:11:58Z,42.805,6.029,13.2986,4.60003,2470.39,2021-9-30T13:13:20Z
2021-09-30T11:15:01Z,42.805,6.029,13.2987,4.60003,2470.427,2021-9-30T13:16:23Z
2021-09-30T11:18:04Z,42.805,6.029,13.2990,4.60003,2470.413,2021-9-30T13:19:27Z
2021-09-30T11:21:07Z,42.805,6.029,13.2984,4.60003,2470.427,2021-9-30T13:22:30Z
2021-09-30T11:24:11Z,42.805,6.029,13.2992,4.60004,2470.413,2021-9-30T13:25:33Z
2021-09-30T11:27:14Z,42.805,6.029,13.2986,4.60006,2470.427,2021-9-30T13:28:36Z
2021-09-30T11:30:17Z,42.805,6.029,13.2990,4.60003,2470.39,2021-9-30T13:31:39Z
2021-09-30T11:33:20Z,42.805,6.029,13.2985,4.60003,2470.413,2021-9-30T13:34:42Z
2021-09-30T11:36:23Z,42.805,6.029,13.2985,4.60003,2470.413,2021-9-30T13:37:45Z
2021-09-30T11:39:26Z,42.805,6.029,13.2990,4.60004,2470.413,2021-9-30T13:40:48Z
2021-09-30T11:42:29Z,42.805,6.029,13.2989,4.60003,2470.437,2021-9-30T13:43:52Z
2021-09-30T11:45:33Z,42.805,6.029,13.2986,4.60003,2470.427,2021-9-30T13:46:55Z
2021-09-30T11:48:36Z,42.805,6.029,13.2989,4.60003,2470.437,2021-9-30T13:49:58Z
2021-09-30T11:51:39Z,42.805,6.029,13.2987,4.60003,2470.427,2021-9-30T13:53:01Z
2021-09-30T11:54:42Z,42.805,6.029,13.2989,4.60004,2470.437,2021-9-30T13:56:04Z
2021-09-30T11:57:45Z,42.805,6.029,13.2988,4.60003,2470.413,2021-9-30T13:59:07Z
2021-09-30T12:00:48Z,42.805,6.029,13.2986,4.60003,2470.474,2021-9-30T14:02:10Z
2021-09-30T12:03:51Z,42.805,6.029,13.2993,4.60004,2470.437,2021-9-30T14:05:13Z
2021-09-30T12:06:54Z,42.805,6.029,13.2987,4.60003,2470.437,2021-9-30T14:08:17Z
2021-09-30T12:09:57Z,42.805,6.029,13.2987,4.60003,2470.423,2021-9-30T14:11:20Z
2021-09-30T12:13:01Z,42.805,6.029,13.2990,4.60003,2470.437,2021-9-30T14:14:23Z
2021-09-30T12:16:04Z,42.805,6.029,13.2987,4.60003,2470.45,2021-9-30T14:17:26Z
2021-09-30T12:19:07Z,42.805,6.029,13.2988,4.60004,2470.46,2021-9-30T14:20:29Z
2021-09-30T12:22:10Z,42.805,6.029,13.2986,4.60003,2470.46,2021-9-30T14:23:32Z
2021-09-30T12:25:13Z,42.805,6.029,13.2988,4.60003,2470.427,2021-9-30T14:26:35Z
2021-09-30T12:28:16Z,42.805,6.029,13.2991,4.60003,2470.483,2021-9-30T14:29:39Z
2021-09-30T12:31:19Z,42.805,6.029,13.2989,4.60003,2470.437,2021-9-30T14:32:42Z
2021-09-30T12:34:23Z,42.805,6.029,13.2988,4.60003,2470.437,2021-9-30T14:35:45Z
2021-09-30T12:37:26Z,42.805,6.029,13.2990,4.60004,2470.46,2021-9-30T14:38:48Z
2021-09-30T12:40:29Z,42.805,6.029,13.2990,4.60003,2470.437,2021-9-30T14:41:51Z
2021-09-30T12:43:32Z,42.805,6.029,13.2985,4.60003,2470.474,2021-9-30T14:44:54Z
2021-09-30T12:46:35Z,42.805,6.029,13.2989,4.60003,2470.483,2021-9-30T14:47:57Z
2021-09-30T12:49:38Z,42.805,6.029,13.2985,4.60004,2470.437,2021-9-30T14:51:00Z
2021-09-30T12:52:41Z,42.805,6.029,13.2986,4.60004,2470.437,2021-9-30T14:54:04Z
2021-09-30T12:55:44Z,42.805,6.029,13.2991,4.60003,2470.46,2021-9-30T14:57:07Z
2021-09-30T12:58:48Z,42.805,6.029,13.2991,4.60005,2470.46,2021-9-30T15:00:10Z
2021-09-30T13:01:51Z,42.805,6.029,13.2991,4.60003,2470.46,2021-9-30T15:03:13Z
2021-09-30T13:04:54Z,42.805,6.029,13.2991,4.60005,2470.483,2021-9-30T15:06:16Z
2021-09-30T13:07:57Z,42.805,6.029,13.2989,4.60004,2470.45,2021-9-30T15:09:19Z
2021-09-30T13:11:00Z,42.805,6.029,13.2986,4.60004,2470.474,2021-9-30T15:12:22Z
2021-09-30T13:14:03Z,42.805,6.029,13.2990,4.60004,2470.46,2021-9-30T15:15:25Z
2021-09-30T13:17:06Z,42.805,6.029,13.2986,4.60003,2470.507,2021-9-30T15:18:29Z
2021-09-30T13:20:09Z,42.805,6.029,13.2986,4.60005,2470.46,2021-9-30T15:21:32Z
2021-09-30T13:23:13Z,42.805,6.029,13.2990,4.60003,2470.46,2021-9-30T15:24:35Z
2021-09-30T13:26:16Z,42.805,6.029,13.2989,4.60003,2470.437,2021-9-30T15:27:38Z
2021-09-30T13:29:19Z,42.805,6.029,13.2990,4.60003,2470.497,2021-9-30T15:30:41Z
2021-09-30T13:32:22Z,42.805,6.029,13.2991,4.60004,2470.474,2021-9-30T15:33:44Z
2021-09-30T13:35:25Z,42.805,6.029,13.2990,4.60004,2470.497,2021-9-30T15:36:47Z
2021-09-30T13:38:28Z,42.805,6.029,13.2986,4.60003,2470.483,2021-9-30T15:39:50Z
2021-09-30T13:41:31Z,42.805,6.029,13.2990,4.60004,2470.45,2021-9-30T15:42:54Z
2021-09-30T13:44:34Z,42.805,6.029,13.2990,4.60004,2470.46,2021-9-30T15:45:57Z
2021-09-30T13:47:38Z,42.805,6.029,13.2989,4.60004,2470.46,2021-9-30T15:49:00Z
2021-09-30T13:50:41Z,42.805,6.029,13.2986,4.60003,2470.474,2021-9-30T15:52:03Z
2021-09-30T13:53:44Z,42.805,6.029,13.2987,4.60004,2470.474,2021-9-30T15:55:06Z
2021-09-30T13:56:47Z,42.805,6.029,13.2985,4.60003,2470.46,2021-9-30T15:58:09Z
2021-09-30T13:59:50Z,42.805,6.029,13.2988,4.60003,2470.437,2021-9-30T16:01:12Z
2021-09-30T14:02:53Z,42.805,6.029,13.2990,4.60005,2470.483,2021-9-30T16:04:15Z
2021-09-30T14:05:56Z,42.805,6.029,13.2986,4.60003,2470.46,2021-9-30T16:07:19Z
2021-09-30T14:08:59Z,42.805,6.029,13.2987,4.60005,2470.45,2021-9-30T16:10:22Z
2021-09-30T14:12:03Z,42.805,6.029,13.2988,4.60004,2470.497,2021-9-30T16:13:25Z
2021-09-30T14:15:06Z,42.805,6.029,13.2986,4.60004,2470.46,2021-9-30T16:16:28Z
2021-09-30T14:18:09Z,42.805,6.029,13.2990,4.60005,2470.46,2021-9-30T16:19:31Z
2021-09-30T14:21:12Z,42.805,6.029,13.2990,4.60003,2470.497,2021-9-30T16:22:34Z
2021-09-30T14:24:15Z,42.805,6.029,13.2986,4.60006,2470.474,2021-9-30T16:25:37Z
2021-09-30T14:27:18Z,42.805,6.029,13.2991,4.60004,2470.483,2021-9-30T16:28:40Z
2021-09-30T14:30:21Z,42.805,6.029,13.2990,4.60004,2470.46,2021-9-30T16:31:44Z
2021-09-30T14:33:25Z,42.805,6.029,13.2991,4.60005,2470.46,2021-9-30T16:34:47Z
2021-09-30T14:36:28Z,42.805,6.029,13.2990,4.60003,2470.497,2021-9-30T16:37:50Z
2021-09-30T14:39:31Z,42.805,6.029,13.2989,4.60005,2470.483,2021-9-30T16:40:53Z
2021-09-30T14:42:34Z,42.805,6.029,13.2989,4.60003,2470.46,2021-9-30T16:43:56Z
2021-09-30T14:45:37Z,42.805,6.029,13.2991,4.60004,2470.497,2021-9-30T16:46:59Z
2021-09-30T14:48:40Z,42.805,6.029,13.2990,4.60004,2470.46,2021-9-30T16:50:02Z
2021-09-30T14:51:43Z,42.805,6.029,13.2988,4.60005,2470.497,2021-9-30T16:53:06Z
2021-09-30T14:54:46Z,42.805,6.029,13.2991,4.60003,2470.483,2021-9-30T16:56:09Z
2021-09-30T14:57:49Z,42.805,6.029,13.2991,4.60003,2470.46,2021-9-30T16:59:12Z
2021-09-30T15:00:53Z,42.805,6.029,13.2991,4.60003,2470.493,2021-9-30T17:02:15Z
2021-09-30T15:03:56Z,42.805,6.029,13.2990,4.60003,2470.46,2021-9-30T17:05:18Z
2021-09-30T15:06:59Z,42.805,6.029,13.2985,4.60003,2470.474,2021-9-30T17:08:21Z
2021-09-30T15:10:02Z,42.805,6.029,13.2987,4.60006,2470.474,2021-9-30T17:11:24Z
2021-09-30T15:13:05Z,42.805,6.029,13.2990,4.60003,2470.46,2021-9-30T17:14:27Z